Location: Tel Aviv
(32.0670°N, 34.7670°E)
Time: 20:30:03
(UTC+03:00)

Vanguard 2 Rocket - Pass Details

Date: 27 January 2022
Orbit: 553 x 3323 km, 32.9° (Epoch: 24 May)

Event Time Altitude Azimuth Distance (km) Brightness Sun altitude
Exits shadow 01:27:53 43° 82° (E) 3,932 10.0 -64.8°
Drops below altitude 10° 01:39:29 10° 78° (ENE) 6,283 11.4 -62.6°
Sets 01:44:25 0° 78° (ENE) 7,291 11.9 -61.6°
